Time,TemperatureF,DewpointF,PressureIn,WindDirection,WindDirectionDegrees,WindSpeedMPH,WindSpeedGustMPH,Humidity,HourlyPrecipIn,Conditions,Clouds,dailyrainin,SoftwareType,DateUTC
2013-02-02 00:01:00,43.8,39.9,30.17,NNE,26,0.0,0.0,86,0.00,,,0.00,WeatherTracker,2013-02-02 08:01:00,
2013-02-02 00:07:00,43.7,39.8,30.17,NNE,26,0.0,0.0,86,0.00,,,0.00,WeatherTracker,2013-02-02 08:07:00,
2013-02-02 00:12:00,43.6,39.7,30.17,NNE,26,0.0,0.0,86,0.00,,,0.00,WeatherTracker,2013-02-02 08:12:00,
2013-02-02 00:17:00,43.6,39.7,30.17,NNE,26,0.0,0.0,86,0.00,,,0.00,WeatherTracker,2013-02-02 08:17:00,
2013-02-02 00:22:00,43.5,39.6,30.17,NNE,26,0.0,0.0,86,0.00,,,0.00,WeatherTracker,2013-02-02 08:22:00,
2013-02-02 00:27:00,43.4,39.8,30.17,NNE,26,0.0,0.0,87,0.00,,,0.00,WeatherTracker,2013-02-02 08:27:00,
2013-02-02 00:32:00,43.3,39.4,30.17,NNE,26,1.0,0.0,86,0.00,,,0.00,WeatherTracker,2013-02-02 08:32:00,
2013-02-02 00:37:00,43.2,39.6,30.17,NNE,24,0.0,0.0,87,0.00,,,0.00,WeatherTracker,2013-02-02 08:37:00,
2013-02-02 00:42:00,43.2,39.6,30.17,NNE,24,0.0,0.0,87,0.00,,,0.00,WeatherTracker,2013-02-02 08:42:00,
2013-02-02 00:47:00,43.2,39.6,30.17,NNE,24,0.0,0.0,87,0.00,,,0.00,WeatherTracker,2013-02-02 08:47:00,
2013-02-02 00:52:00,43.2,39.6,30.17,NNE,24,0.0,0.0,87,0.00,,,0.00,WeatherTracker,2013-02-02 08:52:00,
2013-02-02 00:57:00,43.2,39.6,30.17,NNE,24,0.0,0.0,87,0.00,,,0.00,WeatherTracker,2013-02-02 08:57:00,
2013-02-02 01:02:00,43.1,39.5,30.17,NNE,24,0.0,0.0,87,0.00,,,0.00,WeatherTracker,2013-02-02 09:02:00,
2013-02-02 01:07:00,43.1,39.5,30.17,NNE,24,0.0,0.0,87,0.00,,,0.00,WeatherTracker,2013-02-02 09:07:00,
2013-02-02 01:12:00,43.0,39.4,30.18,NNE,24,0.0,0.0,87,0.00,,,0.00,WeatherTracker,2013-02-02 09:12:00,
2013-02-02 01:17:00,42.9,39.3,30.18,NNE,24,0.0,0.0,87,0.00,,,0.00,WeatherTracker,2013-02-02 09:17:00,
2013-02-02 01:22:00,42.8,39.2,30.18,NNE,24,0.0,0.0,87,0.00,,,0.00,WeatherTracker,2013-02-02 09:22:00,
2013-02-02 01:27:00,42.7,39.1,30.18,NNE,24,0.0,0.0,87,0.00,,,0.00,WeatherTracker,2013-02-02 09:27:00,
2013-02-02 01:32:00,42.7,39.4,30.19,NNE,24,0.0,0.0,88,0.00,,,0.00,WeatherTracker,2013-02-02 09:32:00,
2013-02-02 01:37:00,42.6,39.3,30.18,NNE,24,0.0,0.0,88,0.00,,,0.00,WeatherTracker,2013-02-02 09:37:00,
2013-02-02 01:42:00,42.5,38.9,30.18,NNE,24,0.0,0.0,87,0.00,,,0.00,WeatherTracker,2013-02-02 09:42:00,
2013-02-02 01:47:00,42.5,38.9,30.18,NNE,24,0.0,0.0,87,0.00,,,0.00,WeatherTracker,2013-02-02 09:47:00,
2013-02-02 01:52:00,42.6,39.0,30.18,NNE,24,0.0,0.0,87,0.00,,,0.00,WeatherTracker,2013-02-02 09:52:00,
2013-02-02 01:58:00,42.5,38.9,30.18,NNE,24,0.0,0.0,87,0.00,,,0.00,WeatherTracker,2013-02-02 09:58:00,
2013-02-02 02:03:00,42.5,38.9,30.19,NNE,24,0.0,0.0,87,0.00,,,0.00,WeatherTracker,2013-02-02 10:03:00,
2013-02-02 02:08:00,42.4,39.1,30.19,NNE,24,0.0,0.0,88,0.00,,,0.00,WeatherTracker,2013-02-02 10:08:00,
2013-02-02 02:13:00,42.4,39.1,30.20,NNE,24,0.0,0.0,88,0.00,,,0.00,WeatherTracker,2013-02-02 10:13:00,
2013-02-02 02:18:00,42.4,39.1,30.20,NNE,24,0.0,0.0,88,0.00,,,0.00,WeatherTracker,2013-02-02 10:18:00,
2013-02-02 02:23:00,42.3,39.0,30.20,NNE,24,0.0,0.0,88,0.00,,,0.00,WeatherTracker,2013-02-02 10:23:00,
2013-02-02 02:28:00,42.2,38.6,30.20,NNE,24,0.0,0.0,87,0.00,,,0.00,WeatherTracker,2013-02-02 10:28:00,
2013-02-02 02:33:00,42.3,38.7,30.19,NNE,24,0.0,0.0,87,0.00,,,0.00,WeatherTracker,2013-02-02 10:33:00,
2013-02-02 02:38:00,42.4,38.8,30.19,NNE,24,0.0,0.0,87,0.00,,,0.00,WeatherTracker,2013-02-02 10:38:00,
2013-02-02 02:43:00,42.4,38.8,30.20,NNE,24,0.0,0.0,87,0.00,,,0.00,WeatherTracker,2013-02-02 10:43:00,
2013-02-02 02:48:00,42.4,38.8,30.19,NNE,24,0.0,0.0,87,0.00,,,0.00,WeatherTracker,2013-02-02 10:48:00,
2013-02-02 02:53:00,42.4,38.8,30.19,NNE,24,0.0,0.0,87,0.00,,,0.00,WeatherTracker,2013-02-02 10:53:00,
2013-02-02 02:58:00,42.4,38.8,30.19,NNE,24,0.0,0.0,87,0.00,,,0.00,WeatherTracker,2013-02-02 10:58:00,
2013-02-02 03:03:00,42.4,38.8,30.19,NNE,24,0.0,0.0,87,0.00,,,0.00,WeatherTracker,2013-02-02 11:03:00,
2013-02-02 03:08:00,42.4,39.1,30.19,NNE,24,0.0,0.0,88,0.00,,,0.00,WeatherTracker,2013-02-02 11:08:00,
2013-02-02 03:13:00,42.3,39.0,30.19,NNE,24,0.0,0.0,88,0.00,,,0.00,WeatherTracker,2013-02-02 11:13:00,
2013-02-02 03:18:00,42.3,39.0,30.19,NNE,24,0.0,0.0,88,0.00,,,0.00,WeatherTracker,2013-02-02 11:18:00,
2013-02-02 03:23:00,42.2,38.9,30.19,NNE,24,0.0,0.0,88,0.00,,,0.00,WeatherTracker,2013-02-02 11:23:00,
2013-02-02 03:28:00,42.2,38.9,30.19,NNE,24,0.0,0.0,88,0.00,,,0.00,WeatherTracker,2013-02-02 11:28:00,
2013-02-02 03:33:00,42.2,38.9,30.19,NNE,24,0.0,0.0,88,0.00,,,0.00,WeatherTracker,2013-02-02 11:33:00,
2013-02-02 03:38:00,42.2,38.9,30.19,NNE,24,0.0,0.0,88,0.00,,,0.00,WeatherTracker,2013-02-02 11:38:00,
2013-02-02 03:43:00,42.1,38.8,30.19,NNE,24,0.0,0.0,88,0.00,,,0.00,WeatherTracker,2013-02-02 11:43:00,
2013-02-02 03:48:00,42.0,38.7,30.19,NNE,24,0.0,0.0,88,0.00,,,0.00,WeatherTracker,2013-02-02 11:48:00,
2013-02-02 03:54:00,42.0,38.7,30.19,NNE,24,0.0,0.0,88,0.00,,,0.00,WeatherTracker,2013-02-02 11:54:00,
2013-02-02 03:59:00,42.0,39.0,30.19,NNE,24,0.0,0.0,89,0.00,,,0.00,WeatherTracker,2013-02-02 11:59:00,
2013-02-02 04:04:00,42.1,39.1,30.19,NNE,24,0.0,0.0,89,0.00,,,0.00,WeatherTracker,2013-02-02 12:04:00,
2013-02-02 04:09:00,42.1,38.8,30.19,NNE,24,0.0,0.0,88,0.00,,,0.00,WeatherTracker,2013-02-02 12:09:00,
2013-02-02 04:14:00,42.2,38.9,30.19,NNE,24,0.0,0.0,88,0.00,,,0.00,WeatherTracker,2013-02-02 12:14:00,
2013-02-02 04:19:00,42.2,38.9,30.19,NNE,24,0.0,0.0,88,0.00,,,0.00,WeatherTracker,2013-02-02 12:19:00,
2013-02-02 04:24:00,42.3,39.0,30.19,NNE,24,0.0,0.0,88,0.00,,,0.00,WeatherTracker,2013-02-02 12:24:00,
2013-02-02 04:29:00,42.3,39.0,30.19,NNE,24,0.0,0.0,88,0.00,,,0.00,WeatherTracker,2013-02-02 12:29:00,
2013-02-02 04:34:00,42.3,38.7,30.19,NNE,24,0.0,0.0,87,0.00,,,0.00,WeatherTracker,2013-02-02 12:34:00,
2013-02-02 04:39:00,42.2,38.6,30.19,NNE,24,0.0,0.0,87,0.00,,,0.00,WeatherTracker,2013-02-02 12:39:00,
2013-02-02 04:44:00,42.1,38.5,30.19,NNE,24,0.0,0.0,87,0.00,,,0.00,WeatherTracker,2013-02-02 12:44:00,
2013-02-02 04:49:00,42.1,38.8,30.19,NNE,24,0.0,0.0,88,0.00,,,0.00,WeatherTracker,2013-02-02 12:49:00,
2013-02-02 04:54:00,42.0,38.7,30.19,NNE,24,0.0,0.0,88,0.00,,,0.00,WeatherTracker,2013-02-02 12:54:00,
2013-02-02 04:59:00,41.9,38.6,30.19,NNE,24,0.0,0.0,88,0.00,,,0.00,WeatherTracker,2013-02-02 12:59:00,
2013-02-02 05:04:00,41.8,38.5,30.18,NNE,24,0.0,0.0,88,0.00,,,0.00,WeatherTracker,2013-02-02 13:04:00,
2013-02-02 05:09:00,41.7,38.4,30.19,NNE,24,0.0,0.0,88,0.00,,,0.00,WeatherTracker,2013-02-02 13:09:00,
2013-02-02 05:14:00,41.6,38.3,30.18,NNE,24,0.0,0.0,88,0.00,,,0.00,WeatherTracker,2013-02-02 13:14:00,
2013-02-02 05:19:00,41.5,38.2,30.19,NNE,24,0.0,0.0,88,0.00,,,0.00,WeatherTracker,2013-02-02 13:19:00,
2013-02-02 05:24:00,41.4,38.4,30.19,NNE,24,0.0,0.0,89,0.00,,,0.00,WeatherTracker,2013-02-02 13:24:00,
2013-02-02 05:30:00,41.3,38.3,30.19,NNE,24,0.0,0.0,89,0.00,,,0.00,WeatherTracker,2013-02-02 13:30:00,
2013-02-02 05:35:00,41.3,38.3,30.19,NNE,24,0.0,0.0,89,0.00,,,0.00,WeatherTracker,2013-02-02 13:35:00,
2013-02-02 05:40:00,41.2,38.2,30.19,NNE,24,0.0,0.0,89,0.00,,,0.00,WeatherTracker,2013-02-02 13:40:00,
2013-02-02 05:45:00,41.0,38.0,30.19,NNE,24,0.0,0.0,89,0.00,,,0.00,WeatherTracker,2013-02-02 13:45:00,
2013-02-02 05:50:00,40.9,37.9,30.19,NNE,24,0.0,0.0,89,0.00,,,0.00,WeatherTracker,2013-02-02 13:50:00,
2013-02-02 05:55:00,40.8,37.8,30.19,NNE,24,0.0,0.0,89,0.00,,,0.00,WeatherTracker,2013-02-02 13:55:00,
2013-02-02 06:00:00,40.7,37.7,30.20,NNE,24,0.0,0.0,89,0.00,,,0.00,WeatherTracker,2013-02-02 14:00:00,
2013-02-02 06:05:00,40.6,37.6,30.20,NNE,24,0.0,0.0,89,0.00,,,0.00,WeatherTracker,2013-02-02 14:05:00,
2013-02-02 06:10:00,40.6,37.6,30.20,NNE,24,0.0,0.0,89,0.00,,,0.00,WeatherTracker,2013-02-02 14:10:00,
2013-02-02 06:15:00,40.5,37.5,30.20,NNE,24,0.0,0.0,89,0.00,,,0.00,WeatherTracker,2013-02-02 14:15:00,
2013-02-02 06:20:00,40.5,37.8,30.20,NNE,24,0.0,0.0,90,0.00,,,0.00,WeatherTracker,2013-02-02 14:20:00,
2013-02-02 06:25:00,40.6,38.2,30.20,NNE,24,0.0,0.0,91,0.00,,,0.00,WeatherTracker,2013-02-02 14:25:00,
2013-02-02 06:30:00,40.6,38.2,30.20,NNE,24,0.0,0.0,91,0.00,,,0.00,WeatherTracker,2013-02-02 14:30:00,
2013-02-02 06:35:00,40.7,38.3,30.20,NNE,24,0.0,0.0,91,0.00,,,0.00,WeatherTracker,2013-02-02 14:35:00,
2013-02-02 06:40:00,40.8,38.4,30.20,NNE,24,0.0,0.0,91,0.00,,,0.00,WeatherTracker,2013-02-02 14:40:00,
2013-02-02 06:45:00,40.8,38.4,30.21,NNE,24,0.0,0.0,91,0.00,,,0.00,WeatherTracker,2013-02-02 14:45:00,
2013-02-02 06:50:00,40.8,38.4,30.21,NNE,24,0.0,0.0,91,0.00,,,0.00,WeatherTracker,2013-02-02 14:50:00,
2013-02-02 06:55:00,40.8,38.4,30.21,NNE,24,0.0,0.0,91,0.00,,,0.00,WeatherTracker,2013-02-02 14:55:00,
2013-02-02 07:00:00,40.8,38.4,30.21,NNE,24,1.0,0.0,91,0.00,,,0.00,WeatherTracker,2013-02-02 15:00:00,
2013-02-02 07:05:00,40.9,38.5,30.21,NNE,24,0.0,0.0,91,0.00,,,0.00,WeatherTracker,2013-02-02 15:05:00,
2013-02-02 07:10:00,41.0,38.6,30.21,NNE,24,0.0,0.0,91,0.00,,,0.00,WeatherTracker,2013-02-02 15:10:00,
2013-02-02 07:15:00,41.0,38.6,30.21,NNE,24,0.0,0.0,91,0.00,,,0.00,WeatherTracker,2013-02-02 15:15:00,
2013-02-02 07:21:00,41.1,38.7,30.21,NNE,24,0.0,0.0,91,0.00,,,0.00,WeatherTracker,2013-02-02 15:21:00,
2013-02-02 07:26:00,41.3,38.9,30.21,NNE,24,0.0,0.0,91,0.00,,,0.00,WeatherTracker,2013-02-02 15:26:00,
2013-02-02 07:31:00,41.5,39.1,30.21,NNE,24,1.0,0.0,91,0.00,,,0.00,WeatherTracker,2013-02-02 15:31:00,
2013-02-02 07:36:00,41.7,39.3,30.22,NNE,24,0.0,0.0,91,0.00,,,0.00,WeatherTracker,2013-02-02 15:36:00,
2013-02-02 07:41:00,41.8,39.4,30.22,NNE,24,0.0,0.0,91,0.00,,,0.00,WeatherTracker,2013-02-02 15:41:00,
2013-02-02 07:46:00,42.0,39.6,30.23,NNE,24,0.0,0.0,91,0.00,,,0.00,WeatherTracker,2013-02-02 15:46:00,
2013-02-02 07:51:00,42.1,39.4,30.23,NNE,24,0.0,0.0,90,0.00,,,0.00,WeatherTracker,2013-02-02 15:51:00,
2013-02-02 07:56:00,42.3,39.6,30.23,NNW,343,0.0,0.0,90,0.00,,,0.00,WeatherTracker,2013-02-02 15:56:00,
2013-02-02 08:01:00,42.4,39.7,30.23,NNW,343,3.0,0.0,90,0.00,,,0.00,WeatherTracker,2013-02-02 16:01:00,
2013-02-02 08:06:00,42.5,39.5,30.23,NNW,343,0.0,0.0,89,0.00,,,0.00,WeatherTracker,2013-02-02 16:06:00,
2013-02-02 08:11:00,42.7,39.7,30.23,NNW,343,0.0,0.0,89,0.00,,,0.00,WeatherTracker,2013-02-02 16:11:00,
2013-02-02 08:16:00,43.0,40.0,30.23,NNW,343,0.0,0.0,89,0.00,,,0.00,WeatherTracker,2013-02-02 16:16:00,
2013-02-02 08:21:00,43.2,40.2,30.23,NNW,343,0.0,0.0,89,0.00,,,0.00,WeatherTracker,2013-02-02 16:21:00,
2013-02-02 08:26:00,43.5,40.2,30.23,NNW,343,0.0,0.0,88,0.00,,,0.00,WeatherTracker,2013-02-02 16:26:00,
2013-02-02 08:31:00,43.7,40.7,30.23,NNW,343,0.0,0.0,89,0.00,,,0.00,WeatherTracker,2013-02-02 16:31:00,
2013-02-02 08:36:00,44.0,40.7,30.24,NNW,343,1.0,0.0,88,0.00,,,0.00,WeatherTracker,2013-02-02 16:36:00,
2013-02-02 08:41:00,44.3,40.7,30.24,NNW,343,0.0,0.0,87,0.00,,,0.00,WeatherTracker,2013-02-02 16:41:00,
2013-02-02 08:46:00,44.7,41.1,30.24,NNW,343,0.0,0.0,87,0.00,,,0.00,WeatherTracker,2013-02-02 16:46:00,
2013-02-02 08:51:00,45.0,41.4,30.24,NNW,343,0.0,0.0,87,0.00,,,0.00,WeatherTracker,2013-02-02 16:51:00,
2013-02-02 08:57:00,45.3,41.4,30.24,NNW,343,0.0,0.0,86,0.00,,,0.00,WeatherTracker,2013-02-02 16:57:00,
2013-02-02 09:02:00,45.7,41.8,30.25,NNW,343,0.0,0.0,86,0.00,,,0.00,WeatherTracker,2013-02-02 17:02:00,
2013-02-02 09:07:00,46.2,42.2,30.25,NNW,343,0.0,0.0,86,0.00,,,0.00,WeatherTracker,2013-02-02 17:07:00,
2013-02-02 09:12:00,46.7,42.4,30.25,NNW,343,0.0,0.0,85,0.00,,,0.00,WeatherTracker,2013-02-02 17:12:00,
2013-02-02 09:17:00,47.2,42.6,30.25,NNW,343,0.0,0.0,84,0.00,,,0.00,WeatherTracker,2013-02-02 17:17:00,
2013-02-02 09:22:00,47.6,42.7,30.25,NNW,343,0.0,0.0,83,0.00,,,0.00,WeatherTracker,2013-02-02 17:22:00,
2013-02-02 09:27:00,48.1,43.2,30.25,NNW,343,0.0,0.0,83,0.00,,,0.00,WeatherTracker,2013-02-02 17:27:00,
2013-02-02 09:32:00,48.6,43.4,30.25,NNW,343,0.0,0.0,82,0.00,,,0.00,WeatherTracker,2013-02-02 17:32:00,
2013-02-02 09:37:00,49.1,43.5,30.25,NNW,343,1.0,0.0,81,0.00,,,0.00,WeatherTracker,2013-02-02 17:37:00,
2013-02-02 09:42:00,49.6,43.7,30.25,NNW,343,1.0,0.0,80,0.00,,,0.00,WeatherTracker,2013-02-02 17:42:00,
2013-02-02 09:47:00,50.1,43.5,30.25,NNW,343,0.0,0.0,78,0.00,,,0.00,WeatherTracker,2013-02-02 17:47:00,
2013-02-02 09:52:00,50.5,44.2,30.25,NNW,343,1.0,0.0,79,0.00,,,0.00,WeatherTracker,2013-02-02 17:52:00,
2013-02-02 09:57:00,51.0,44.4,30.26,NNW,343,0.0,0.0,78,0.00,,,0.00,WeatherTracker,2013-02-02 17:57:00,
2013-02-02 10:02:00,51.4,44.8,30.25,NNW,343,1.0,0.0,78,0.00,,,0.00,WeatherTracker,2013-02-02 18:02:00,
2013-02-02 10:07:00,51.8,45.2,30.26,NNW,343,0.0,0.0,78,0.00,,,0.00,WeatherTracker,2013-02-02 18:07:00,
2013-02-02 10:12:00,52.3,45.0,30.25,NNW,336,0.0,0.0,76,0.00,,,0.00,WeatherTracker,2013-02-02 18:12:00,
2013-02-02 10:17:00,52.6,44.9,30.25,NNW,336,0.0,0.0,75,0.00,,,0.00,WeatherTracker,2013-02-02 18:17:00,
2013-02-02 10:22:00,53.0,45.3,30.25,NNW,336,0.0,0.0,75,0.00,,,0.00,WeatherTracker,2013-02-02 18:22:00,
2013-02-02 10:27:00,53.2,44.8,30.25,NNW,336,0.0,0.0,73,0.00,,,0.00,WeatherTracker,2013-02-02 18:27:00,
2013-02-02 10:32:00,53.5,45.8,30.25,NNW,336,1.0,0.0,75,0.00,,,0.00,WeatherTracker,2013-02-02 18:32:00,
2013-02-02 10:37:00,53.8,45.3,30.25,NNW,336,1.0,0.0,73,0.00,,,0.00,WeatherTracker,2013-02-02 18:37:00,
2013-02-02 10:42:00,54.2,45.7,30.25,NNW,336,1.0,0.0,73,0.00,,,0.00,WeatherTracker,2013-02-02 18:42:00,
2013-02-02 10:47:00,54.5,45.3,30.25,NNW,336,0.0,0.0,71,0.00,,,0.00,WeatherTracker,2013-02-02 18:47:00,
2013-02-02 10:52:00,54.9,45.7,30.25,NNW,336,0.0,0.0,71,0.00,,,0.00,WeatherTracker,2013-02-02 18:52:00,
2013-02-02 10:57:00,55.2,45.6,30.25,NNW,336,0.0,0.0,70,0.00,,,0.00,WeatherTracker,2013-02-02 18:57:00,
2013-02-02 11:02:00,55.6,45.2,30.25,NNW,336,3.0,0.0,68,0.00,,,0.00,WeatherTracker,2013-02-02 19:02:00,
2013-02-02 11:07:00,55.7,44.9,30.25,NNW,336,0.0,0.0,67,0.00,,,0.00,WeatherTracker,2013-02-02 19:07:00,
2013-02-02 11:12:00,55.9,45.1,30.25,NNW,336,0.0,0.0,67,0.00,,,0.00,WeatherTracker,2013-02-02 19:12:00,
2013-02-02 11:17:00,56.1,45.3,30.25,NNW,336,2.0,0.0,67,0.00,,,0.00,WeatherTracker,2013-02-02 19:17:00,
2013-02-02 11:22:00,56.3,45.5,30.25,NNW,336,0.0,0.0,67,0.00,,,0.00,WeatherTracker,2013-02-02 19:22:00,
2013-02-02 11:27:00,56.4,45.2,30.24,NNW,336,0.0,0.0,66,0.00,,,0.00,WeatherTracker,2013-02-02 19:27:00,
2013-02-02 11:32:00,56.6,45.4,30.24,NNW,336,0.0,0.0,66,0.00,,,0.00,WeatherTracker,2013-02-02 19:32:00,
2013-02-02 11:37:00,56.8,45.2,30.24,NNW,342,2.0,0.0,65,0.00,,,0.00,WeatherTracker,2013-02-02 19:37:00,
2013-02-02 11:42:00,56.9,44.8,30.24,North,355,0.0,0.0,64,0.00,,,0.00,WeatherTracker,2013-02-02 19:42:00,
2013-02-02 11:47:00,57.1,45.0,30.23,NNE,19,0.0,0.0,64,0.00,,,0.00,WeatherTracker,2013-02-02 19:47:00,
2013-02-02 11:52:00,57.3,44.8,30.23,ENE,66,0.0,0.0,63,0.00,,,0.00,WeatherTracker,2013-02-02 19:52:00,
2013-02-02 11:58:00,57.5,45.4,30.23,ENE,66,0.0,0.0,64,0.00,,,0.00,WeatherTracker,2013-02-02 19:58:00,
2013-02-02 12:03:00,58.0,45.5,30.23,ENE,66,3.0,0.0,63,0.00,,,0.00,WeatherTracker,2013-02-02 20:03:00,
2013-02-02 12:08:00,58.5,45.9,30.23,ENE,66,2.0,0.0,63,0.00,,,0.00,WeatherTracker,2013-02-02 20:08:00,
2013-02-02 12:13:00,59.0,46.4,30.22,ENE,76,2.0,0.0,63,0.00,,,0.00,WeatherTracker,2013-02-02 20:13:00,
2013-02-02 12:18:00,59.5,46.0,30.22,SSW,205,1.0,0.0,61,0.00,,,0.00,WeatherTracker,2013-02-02 20:18:00,
2013-02-02 12:23:00,59.9,46.8,30.22,SSW,210,2.0,0.0,62,0.00,,,0.00,WeatherTracker,2013-02-02 20:23:00,
2013-02-02 12:28:00,60.4,46.9,30.22,SW,223,2.0,0.0,61,0.00,,,0.00,WeatherTracker,2013-02-02 20:28:00,
2013-02-02 12:33:00,60.7,46.7,30.22,SW,228,1.0,0.0,60,0.00,,,0.00,WeatherTracker,2013-02-02 20:33:00,
2013-02-02 12:38:00,60.9,47.4,30.21,WSW,245,2.0,0.0,61,0.00,,,0.00,WeatherTracker,2013-02-02 20:38:00,
2013-02-02 12:43:00,61.2,47.2,30.21,WSW,239,1.0,0.0,60,0.00,,,0.00,WeatherTracker,2013-02-02 20:43:00,
2013-02-02 12:48:00,61.4,46.9,30.21,WSW,238,0.0,0.0,59,0.00,,,0.00,WeatherTracker,2013-02-02 20:48:00,
2013-02-02 12:53:00,61.7,46.8,30.20,SW,224,0.0,0.0,58,0.00,,,0.00,WeatherTracker,2013-02-02 20:53:00,
2013-02-02 12:58:00,62.0,47.0,30.20,West,275,2.0,0.0,58,0.00,,,0.00,WeatherTracker,2013-02-02 20:58:00,
2013-02-02 13:03:00,62.3,46.9,30.20,South,180,1.0,0.0,57,0.00,,,0.00,WeatherTracker,2013-02-02 21:03:00,
2013-02-02 13:08:00,62.3,46.9,30.20,South,179,0.0,0.0,57,0.00,,,0.00,WeatherTracker,2013-02-02 21:08:00,
2013-02-02 13:13:00,62.6,46.7,30.19,South,175,0.0,0.0,56,0.00,,,0.00,WeatherTracker,2013-02-02 21:13:00,
2013-02-02 13:18:00,62.8,46.9,30.19,South,173,0.0,0.0,56,0.00,,,0.00,WeatherTracker,2013-02-02 21:18:00,
2013-02-02 13:23:00,63.1,46.7,30.19,South,189,1.0,0.0,55,0.00,,,0.00,WeatherTracker,2013-02-02 21:23:00,
2013-02-02 13:28:00,63.2,46.3,30.19,South,188,0.0,0.0,54,0.00,,,0.00,WeatherTracker,2013-02-02 21:28:00,
2013-02-02 13:33:00,63.4,46.9,30.19,SSW,202,2.0,0.0,55,0.00,,,0.00,WeatherTracker,2013-02-02 21:33:00,
2013-02-02 13:38:00,63.6,46.2,30.18,SW,234,0.0,0.0,53,0.00,,,0.00,WeatherTracker,2013-02-02 21:38:00,
2013-02-02 13:43:00,63.6,46.2,30.18,West,261,1.0,0.0,53,0.00,,,0.00,WeatherTracker,2013-02-02 21:43:00,
2013-02-02 13:48:00,63.7,46.7,30.18,West,265,0.0,0.0,54,0.00,,,0.00,WeatherTracker,2013-02-02 21:48:00,
2013-02-02 13:53:00,63.8,46.8,30.18,West,265,0.0,0.0,54,0.00,,,0.00,WeatherTracker,2013-02-02 21:53:00,
2013-02-02 13:58:00,64.1,46.1,30.18,SE,137,0.0,0.0,52,0.00,,,0.00,WeatherTracker,2013-02-02 21:58:00,
2013-02-02 14:03:00,64.3,46.8,30.17,ESE,119,3.0,0.0,53,0.00,,,0.00,WeatherTracker,2013-02-02 22:03:00,
2013-02-02 14:08:00,64.3,45.3,30.17,ESE,109,0.0,0.0,50,0.00,,,0.00,WeatherTracker,2013-02-02 22:08:00,
2013-02-02 14:13:00,64.3,46.3,30.17,SE,142,1.0,0.0,52,0.00,,,0.00,WeatherTracker,2013-02-02 22:13:00,
2013-02-02 14:19:00,64.7,44.6,30.17,ESE,109,3.0,0.0,48,0.00,,,0.00,WeatherTracker,2013-02-02 22:19:00,
2013-02-02 14:24:00,64.9,45.3,30.17,ESE,104,2.0,0.0,49,0.00,,,0.00,WeatherTracker,2013-02-02 22:24:00,
2013-02-02 14:29:00,65.2,46.1,30.17,South,169,1.0,0.0,50,0.00,,,0.00,WeatherTracker,2013-02-02 22:29:00,
2013-02-02 14:34:00,65.5,45.3,30.17,SE,137,0.0,0.0,48,0.00,,,0.00,WeatherTracker,2013-02-02 22:34:00,
2013-02-02 14:39:00,65.8,45.0,30.17,SE,134,1.0,0.0,47,0.00,,,0.00,WeatherTracker,2013-02-02 22:39:00,
2013-02-02 14:44:00,65.9,45.1,30.17,SE,136,1.0,0.0,47,0.00,,,0.00,WeatherTracker,2013-02-02 22:44:00,
2013-02-02 14:49:00,66.0,45.7,30.17,SE,146,0.0,0.0,48,0.00,,,0.00,WeatherTracker,2013-02-02 22:49:00,
2013-02-02 14:54:00,66.2,45.9,30.17,SSE,151,1.0,0.0,48,0.00,,,0.00,WeatherTracker,2013-02-02 22:54:00,
2013-02-02 14:59:00,66.5,45.1,30.17,SSE,159,0.0,0.0,46,0.00,,,0.00,WeatherTracker,2013-02-02 22:59:00,
2013-02-02 15:04:00,66.5,43.9,30.17,East,80,5.0,0.0,44,0.00,,,0.00,WeatherTracker,2013-02-02 23:04:00,
2013-02-02 15:09:00,66.3,43.7,30.17,East,86,0.0,0.0,44,0.00,,,0.00,WeatherTracker,2013-02-02 23:09:00,
2013-02-02 15:14:00,66.2,43.6,30.17,ENE,78,3.0,0.0,44,0.00,,,0.00,WeatherTracker,2013-02-02 23:14:00,
2013-02-02 15:19:00,66.1,43.5,30.17,East,84,3.0,0.0,44,0.00,,,0.00,WeatherTracker,2013-02-02 23:19:00,
2013-02-02 15:24:00,66.0,43.5,30.17,East,96,1.0,0.0,44,0.00,,,0.00,WeatherTracker,2013-02-02 23:24:00,
2013-02-02 15:29:00,65.9,44.0,30.17,East,96,0.0,0.0,45,0.00,,,0.00,WeatherTracker,2013-02-02 23:29:00,
2013-02-02 15:34:00,65.9,44.0,30.17,East,96,0.0,0.0,45,0.00,,,0.00,WeatherTracker,2013-02-02 23:34:00,
2013-02-02 15:39:00,65.9,46.7,30.17,NNW,340,1.0,0.0,50,0.00,,,0.00,WeatherTracker,2013-02-02 23:39:00,
2013-02-02 15:44:00,65.8,47.2,30.16,SW,227,4.0,0.0,51,0.00,,,0.00,WeatherTracker,2013-02-02 23:44:00,
2013-02-02 15:49:00,65.9,46.7,30.16,WSW,250,3.0,0.0,50,0.00,,,0.00,WeatherTracker,2013-02-02 23:49:00,
2013-02-02 15:55:00,66.0,46.8,30.16,SW,217,2.0,0.0,50,0.00,,,0.00,WeatherTracker,2013-02-02 23:55:00,
2013-02-02 16:00:00,66.1,46.4,30.16,WSW,240,2.0,0.0,49,0.00,,,0.00,WeatherTracker,2013-02-03 00:00:00,
2013-02-02 16:05:00,66.1,46.4,30.16,SW,223,2.0,0.0,49,0.00,,,0.00,WeatherTracker,2013-02-03 00:05:00,
2013-02-02 16:10:00,66.0,46.3,30.16,West,281,2.0,0.0,49,0.00,,,0.00,WeatherTracker,2013-02-03 00:10:00,
2013-02-02 16:15:00,66.1,46.4,30.16,WSW,239,2.0,0.0,49,0.00,,,0.00,WeatherTracker,2013-02-03 00:15:00,
2013-02-02 16:20:00,66.0,46.3,30.16,SSE,163,2.0,0.0,49,0.00,,,0.00,WeatherTracker,2013-02-03 00:20:00,
2013-02-02 16:25:00,65.9,46.2,30.16,South,173,5.0,0.0,49,0.00,,,0.00,WeatherTracker,2013-02-03 00:25:00,
2013-02-02 16:30:00,65.7,46.5,30.16,South,184,2.0,0.0,50,0.00,,,0.00,WeatherTracker,2013-02-03 00:30:00,
2013-02-02 16:35:00,65.5,46.9,30.16,SSW,202,2.0,0.0,51,0.00,,,0.00,WeatherTracker,2013-02-03 00:35:00,
2013-02-02 16:40:00,65.2,46.6,30.16,South,184,2.0,0.0,51,0.00,,,0.00,WeatherTracker,2013-02-03 00:40:00,
2013-02-02 16:45:00,64.8,46.8,30.16,South,176,1.0,0.0,52,0.00,,,0.00,WeatherTracker,2013-02-03 00:45:00,
2013-02-02 16:50:00,64.5,46.5,30.16,South,172,2.0,0.0,52,0.00,,,0.00,WeatherTracker,2013-02-03 00:50:00,
2013-02-02 16:55:00,64.0,46.5,30.16,SSE,165,0.0,0.0,53,0.00,,,0.00,WeatherTracker,2013-02-03 00:55:00,
2013-02-02 17:00:00,63.5,46.1,30.16,SSE,165,0.0,0.0,53,0.00,,,0.00,WeatherTracker,2013-02-03 01:00:00,
2013-02-02 17:05:00,63.2,46.3,30.16,SSE,165,0.0,0.0,54,0.00,,,0.00,WeatherTracker,2013-02-03 01:05:00,
2013-02-02 17:10:00,62.8,46.4,30.16,SSE,165,0.0,0.0,55,0.00,,,0.00,WeatherTracker,2013-02-03 01:10:00,
2013-02-02 17:15:00,62.4,46.5,30.16,WSW,242,2.0,0.0,56,0.00,,,0.00,WeatherTracker,2013-02-03 01:15:00,
2013-02-02 17:20:00,62.0,46.1,30.16,WSW,237,1.0,0.0,56,0.00,,,0.00,WeatherTracker,2013-02-03 01:20:00,
2013-02-02 17:25:00,61.5,46.1,30.16,SSW,207,2.0,0.0,57,0.00,,,0.00,WeatherTracker,2013-02-03 01:25:00,
2013-02-02 17:30:00,61.0,46.1,30.16,SW,227,2.0,0.0,58,0.00,,,0.00,WeatherTracker,2013-02-03 01:30:00,
2013-02-02 17:35:00,60.5,47.4,30.17,SW,232,2.0,0.0,62,0.00,,,0.00,WeatherTracker,2013-02-03 01:35:00,
2013-02-02 17:40:00,60.1,48.3,30.17,WSW,246,3.0,0.0,65,0.00,,,0.00,WeatherTracker,2013-02-03 01:40:00,
2013-02-02 17:45:00,59.6,48.6,30.17,WSW,246,1.0,0.0,67,0.00,,,0.00,WeatherTracker,2013-02-03 01:45:00,
2013-02-02 17:50:00,59.1,48.5,30.17,WSW,246,0.0,0.0,68,0.00,,,0.00,WeatherTracker,2013-02-03 01:50:00,
2013-02-02 17:56:00,58.6,48.5,30.17,West,259,2.0,0.0,69,0.00,,,0.00,WeatherTracker,2013-02-03 01:56:00,
2013-02-02 18:01:00,58.2,48.5,30.17,WSW,250,1.0,0.0,70,0.00,,,0.00,WeatherTracker,2013-02-03 02:01:00,
2013-02-02 18:06:00,57.7,48.4,30.17,WSW,252,4.0,0.0,71,0.00,,,0.00,WeatherTracker,2013-02-03 02:06:00,
2013-02-02 18:11:00,57.3,48.4,30.17,WSW,245,3.0,0.0,72,0.00,,,0.00,WeatherTracker,2013-02-03 02:11:00,
2013-02-02 18:16:00,57.0,48.4,30.17,WSW,256,1.0,0.0,73,0.00,,,0.00,WeatherTracker,2013-02-03 02:16:00,
2013-02-02 18:21:00,56.7,48.1,30.17,WSW,254,1.0,0.0,73,0.00,,,0.00,WeatherTracker,2013-02-03 02:21:00,
2013-02-02 18:26:00,56.4,48.2,30.17,WSW,254,1.0,0.0,74,0.00,,,0.00,WeatherTracker,2013-02-03 02:26:00,
2013-02-02 18:31:00,56.1,47.9,30.17,WSW,250,2.0,0.0,74,0.00,,,0.00,WeatherTracker,2013-02-03 02:31:00,
2013-02-02 18:36:00,55.9,48.1,30.17,WSW,250,1.0,0.0,75,0.00,,,0.00,WeatherTracker,2013-02-03 02:36:00,
2013-02-02 18:41:00,55.6,47.8,30.17,SW,234,3.0,0.0,75,0.00,,,0.00,WeatherTracker,2013-02-03 02:41:00,
2013-02-02 18:46:00,55.4,48.0,30.17,SW,230,2.0,0.0,76,0.00,,,0.00,WeatherTracker,2013-02-03 02:46:00,
2013-02-02 18:51:00,55.3,47.9,30.17,WSW,247,2.0,0.0,76,0.00,,,0.00,WeatherTracker,2013-02-03 02:51:00,
2013-02-02 18:56:00,55.2,48.1,30.17,SW,215,4.0,0.0,77,0.00,,,0.00,WeatherTracker,2013-02-03 02:56:00,
2013-02-02 19:01:00,55.0,47.9,30.17,West,260,3.0,0.0,77,0.00,,,0.00,WeatherTracker,2013-02-03 03:01:00,
2013-02-02 19:06:00,54.8,47.7,30.17,West,281,2.0,0.0,77,0.00,,,0.00,WeatherTracker,2013-02-03 03:06:00,
2013-02-02 19:11:00,54.5,47.4,30.17,West,275,2.0,0.0,77,0.00,,,0.00,WeatherTracker,2013-02-03 03:11:00,
2013-02-02 19:16:00,54.2,47.5,30.17,West,277,2.0,0.0,78,0.00,,,0.00,WeatherTracker,2013-02-03 03:16:00,
2013-02-02 19:21:00,53.8,47.1,30.18,West,275,1.0,0.0,78,0.00,,,0.00,WeatherTracker,2013-02-03 03:21:00,
2013-02-02 19:26:00,53.5,47.1,30.18,West,275,1.0,0.0,79,0.00,,,0.00,WeatherTracker,2013-02-03 03:26:00,
2013-02-02 19:31:00,53.2,46.9,30.18,West,275,2.0,0.0,79,0.00,,,0.00,WeatherTracker,2013-02-03 03:31:00,
2013-02-02 19:36:00,52.8,46.8,30.18,West,275,1.0,0.0,80,0.00,,,0.00,WeatherTracker,2013-02-03 03:36:00,
2013-02-02 19:42:00,52.6,46.9,30.18,West,263,1.0,0.0,81,0.00,,,0.00,WeatherTracker,2013-02-03 03:42:00,
2013-02-02 19:47:00,52.3,46.6,30.17,West,263,1.0,0.0,81,0.00,,,0.00,WeatherTracker,2013-02-03 03:47:00,
2013-02-02 19:52:00,52.1,46.4,30.17,West,263,1.0,0.0,81,0.00,,,0.00,WeatherTracker,2013-02-03 03:52:00,
2013-02-02 19:57:00,51.9,46.3,30.17,West,263,1.0,0.0,81,0.00,,,0.00,WeatherTracker,2013-02-03 03:57:00,
2013-02-02 20:02:00,51.7,46.4,30.17,West,263,0.0,0.0,82,0.00,,,0.00,WeatherTracker,2013-02-03 04:02:00,
2013-02-02 20:07:00,51.5,46.2,30.17,West,263,0.0,0.0,82,0.00,,,0.00,WeatherTracker,2013-02-03 04:07:00,
2013-02-02 20:12:00,51.4,46.1,30.17,West,263,0.0,0.0,82,0.00,,,0.00,WeatherTracker,2013-02-03 04:12:00,
2013-02-02 20:17:00,51.2,45.9,30.17,West,263,0.0,0.0,82,0.00,,,0.00,WeatherTracker,2013-02-03 04:17:00,
2013-02-02 20:22:00,51.0,45.7,30.17,West,263,1.0,0.0,82,0.00,,,0.00,WeatherTracker,2013-02-03 04:22:00,
2013-02-02 20:27:00,50.8,45.8,30.17,West,263,2.0,0.0,83,0.00,,,0.00,WeatherTracker,2013-02-03 04:27:00,
2013-02-02 20:32:00,50.5,45.5,30.17,WSW,253,1.0,0.0,83,0.00,,,0.00,WeatherTracker,2013-02-03 04:32:00,
2013-02-02 20:37:00,50.4,45.4,30.17,WSW,253,1.0,0.0,83,0.00,,,0.00,WeatherTracker,2013-02-03 04:37:00,
2013-02-02 20:42:00,50.2,45.6,30.17,WSW,253,1.0,0.0,84,0.00,,,0.00,WeatherTracker,2013-02-03 04:42:00,
2013-02-02 20:47:00,50.0,45.4,30.17,West,279,4.0,0.0,84,0.00,,,0.00,WeatherTracker,2013-02-03 04:47:00,
2013-02-02 20:52:00,49.9,45.3,30.17,West,264,2.0,0.0,84,0.00,,,0.00,WeatherTracker,2013-02-03 04:52:00,
2013-02-02 20:57:00,49.7,45.1,30.17,West,265,1.0,0.0,84,0.00,,,0.00,WeatherTracker,2013-02-03 04:57:00,
2013-02-02 21:00:00,49.7,45.1,30.17,West,261,1.0,0.0,84,0.00,,,0.00,WeatherTracker,2013-02-03 05:00:00,
2013-02-02 21:01:00,49.6,45.0,30.17,West,261,2.0,0.0,84,0.00,,,0.00,WeatherTracker,2013-02-03 05:01:00,
2013-02-02 21:06:00,49.4,44.8,30.17,WSW,252,1.0,0.0,84,0.00,,,0.00,WeatherTracker,2013-02-03 05:06:00,
2013-02-02 21:11:00,49.2,44.6,30.17,WSW,249,1.0,0.0,84,0.00,,,0.00,WeatherTracker,2013-02-03 05:11:00,
2013-02-02 21:17:00,49.0,44.7,30.17,WSW,249,1.0,0.0,85,0.00,,,0.00,WeatherTracker,2013-02-03 05:17:00,
2013-02-02 21:22:00,48.8,44.5,30.17,WSW,248,1.0,0.0,85,0.00,,,0.00,WeatherTracker,2013-02-03 05:22:00,
2013-02-02 21:27:00,48.5,44.2,30.17,WSW,248,2.0,0.0,85,0.00,,,0.00,WeatherTracker,2013-02-03 05:27:00,
2013-02-02 21:32:00,48.3,44.3,30.17,WSW,248,1.0,0.0,86,0.00,,,0.00,WeatherTracker,2013-02-03 05:32:00,
2013-02-02 21:37:00,48.2,44.2,30.17,WSW,248,1.0,0.0,86,0.00,,,0.00,WeatherTracker,2013-02-03 05:37:00,
2013-02-02 21:42:00,48.1,44.4,30.17,WSW,248,2.0,0.0,87,0.00,,,0.00,WeatherTracker,2013-02-03 05:42:00,
2013-02-02 21:47:00,47.9,44.2,30.17,WSW,247,2.0,0.0,87,0.00,,,0.00,WeatherTracker,2013-02-03 05:47:00,
2013-02-02 21:52:00,47.8,44.1,30.17,WSW,247,2.0,0.0,87,0.00,,,0.00,WeatherTracker,2013-02-03 05:52:00,
2013-02-02 22:02:00,47.6,43.9,30.17,WSW,247,0.0,0.0,87,0.00,,,0.00,WeatherTracker,2013-02-03 06:02:00,
2013-02-02 22:07:00,47.5,44.1,30.17,WSW,247,1.0,0.0,88,0.00,,,0.00,WeatherTracker,2013-02-03 06:07:00,
2013-02-02 22:12:00,47.4,44.0,30.17,WSW,244,2.0,0.0,88,0.00,,,0.00,WeatherTracker,2013-02-03 06:12:00,
2013-02-02 22:18:00,47.3,43.9,30.17,WSW,244,0.0,0.0,88,0.00,,,0.00,WeatherTracker,2013-02-03 06:18:00,
2013-02-02 22:23:00,47.2,43.8,30.16,WSW,246,1.0,0.0,88,0.00,,,0.00,WeatherTracker,2013-02-03 06:23:00,
2013-02-02 22:28:00,47.1,43.7,30.16,WSW,246,1.0,0.0,88,0.00,,,0.00,WeatherTracker,2013-02-03 06:28:00,
2013-02-02 22:33:00,47.0,43.6,30.16,WSW,247,2.0,0.0,88,0.00,,,0.00,WeatherTracker,2013-02-03 06:33:00,
2013-02-02 22:38:00,46.8,43.4,30.16,WSW,247,2.0,0.0,88,0.00,,,0.00,WeatherTracker,2013-02-03 06:38:00,
2013-02-02 22:43:00,46.6,43.2,30.16,WSW,247,0.0,0.0,88,0.00,,,0.00,WeatherTracker,2013-02-03 06:43:00,
2013-02-02 22:48:00,46.4,43.0,30.16,WSW,247,2.0,0.0,88,0.00,,,0.00,WeatherTracker,2013-02-03 06:48:00,
2013-02-02 22:53:00,46.3,43.2,30.16,WSW,244,1.0,0.0,89,0.00,,,0.00,WeatherTracker,2013-02-03 06:53:00,
2013-02-02 22:58:00,46.1,42.7,30.17,WSW,244,0.0,0.0,88,0.00,,,0.00,WeatherTracker,2013-02-03 06:58:00,
2013-02-02 23:03:00,45.9,42.5,30.17,WSW,244,1.0,0.0,88,0.00,,,0.00,WeatherTracker,2013-02-03 07:03:00,
2013-02-02 23:09:00,45.7,42.4,30.17,WSW,244,0.0,0.0,88,0.00,,,0.00,WeatherTracker,2013-02-03 07:09:00,
2013-02-02 23:14:00,45.6,42.3,30.17,WSW,244,0.0,0.0,88,0.00,,,0.00,WeatherTracker,2013-02-03 07:14:00,
2013-02-02 23:19:00,45.4,42.1,30.17,WSW,244,0.0,0.0,88,0.00,,,0.00,WeatherTracker,2013-02-03 07:19:00,
2013-02-02 23:24:00,45.3,42.3,30.17,WSW,244,0.0,0.0,89,0.00,,,0.00,WeatherTracker,2013-02-03 07:24:00,
2013-02-02 23:29:00,45.2,42.2,30.17,WSW,244,0.0,0.0,89,0.00,,,0.00,WeatherTracker,2013-02-03 07:29:00,
2013-02-02 23:34:00,45.1,42.1,30.17,WSW,244,0.0,0.0,89,0.00,,,0.00,WeatherTracker,2013-02-03 07:34:00,
2013-02-02 23:39:00,45.0,42.0,30.17,WSW,244,0.0,0.0,89,0.00,,,0.00,WeatherTracker,2013-02-03 07:39:00,
2013-02-02 23:44:00,44.9,42.1,30.17,WSW,244,0.0,0.0,90,0.00,,,0.00,WeatherTracker,2013-02-03 07:44:00,
2013-02-02 23:49:00,44.9,42.1,30.17,WSW,244,0.0,0.0,90,0.00,,,0.00,WeatherTracker,2013-02-03 07:49:00,
2013-02-02 23:54:00,44.8,42.0,30.17,WSW,244,0.0,0.0,90,0.00,,,0.00,WeatherTracker,2013-02-03 07:54:00,
2013-02-02 23:59:00,44.7,41.9,30.17,WSW,244,0.0,0.0,90,0.00,,,0.00,WeatherTracker,2013-02-03 07:59:00,